When you browse on this site, cookies collect data to enhance your experience and personalize the content and advertising you see.
Visit our Privacy Policy to learn more. By continuing to use the site, you agree to this use of cookies and data.
  • în România
  • Lista ţărilor
  • Pe 7 zile
  • Temperatura apei
  • Meteo pe hartă
  • Widget-uri
  • user-avatar
    Intrare

    Meteo pe oră la Cacheu

    Astăzi, 24 August, Sâmbătă

    Timp Temperatura Precipitaţii Vânt Presiune Umiditate
    00:00 +26°C° 0 mm 3 m/s 760 mmHg 89%
    01:00 +26°C° 0 mm 3 m/s 759 mmHg 90%
    02:00 +26°C° 0 mm 3 m/s 759 mmHg 90%
    03:00 +26°C° 0 mm 3 m/s 759 mmHg 91%
    04:00 +26°C° 0 mm 3 m/s 759 mmHg 91%
    05:00 +26°C° 0 mm 3 m/s 759 mmHg 92%
    06:00 +27°C° 0.2 mm 3 m/s 759 mmHg 88%
    07:00 +28°C° 0.2 mm 3 m/s 760 mmHg 85%
    08:00 +28°C° 0.2 mm 4 m/s 760 mmHg 81%
    09:00 +29°C° 0.9 mm 4 m/s 760 mmHg 80%
    10:00 +30°C° 0.9 mm 5 m/s 760 mmHg 78%
    11:00 +30°C° 0.9 mm 5 m/s 760 mmHg 77%
    12:00 +30°C° 0.8 mm 6 m/s 760 mmHg 76%
    13:00 +30°C° 0.8 mm 6 m/s 759 mmHg 76%
    14:00 +30°C° 0.8 mm 6 m/s 758 mmHg 76%
    15:00 +30°C° 0.3 mm 6 m/s 758 mmHg 78%
    16:00 +29°C° 0.3 mm 6 m/s 758 mmHg 81%
    17:00 +28°C° 0.3 mm 5 m/s 758 mmHg 83%
    18:00 +28°C° 0.1 mm 4 m/s 758 mmHg 85%
    19:00 +27°C° 0.1 mm 4 m/s 759 mmHg 87%
    20:00 +27°C° 0.1 mm 3 m/s 759 mmHg 89%
    21:00 +27°C° 0.3 mm 3 m/s 760 mmHg 90%
    22:00 +27°C° 0.3 mm 3 m/s 760 mmHg 90%
    23:00 +27°C° 0.3 mm 4 m/s 760 mmHg 91%

    Mâine, 25 August, Duminică

    Timp Temperatura Precipitaţii Vânt Presiune Umiditate
    00:00 +27°C° 0.1 mm 4 m/s 759 mmHg 91%
    01:00 +27°C° 0.1 mm 4 m/s 759 mmHg 91%
    02:00 +26°C° 0.1 mm 4 m/s 758 mmHg 91%
    03:00 +26°C° 0.1 mm 4 m/s 758 mmHg 92%
    04:00 +26°C° 0.1 mm 4 m/s 758 mmHg 92%
    05:00 +26°C° 0.1 mm 4 m/s 757 mmHg 92%
    06:00 +27°C° 0.4 mm 4 m/s 758 mmHg 90%
    07:00 +27°C° 0.4 mm 5 m/s 758 mmHg 88%
    08:00 +28°C° 0.4 mm 5 m/s 759 mmHg 86%
    09:00 +29°C° 1.3 mm 5 m/s 759 mmHg 84%
    10:00 +29°C° 1.3 mm 5 m/s 759 mmHg 82%
    11:00 +29°C° 1.3 mm 5 m/s 759 mmHg 81%
    12:00 +29°C° 2.5 mm 5 m/s 758 mmHg 80%
    13:00 +29°C° 2.5 mm 5 m/s 758 mmHg 80%
    14:00 +29°C° 2.5 mm 5 m/s 758 mmHg 80%
    15:00 +28°C° 3.8 mm 5 m/s 758 mmHg 83%
    16:00 +27°C° 3.8 mm 4 m/s 757 mmHg 87%
    17:00 +26°C° 3.8 mm 4 m/s 757 mmHg 90%
    18:00 +26°C° 3.2 mm 3 m/s 758 mmHg 91%
    19:00 +26°C° 3.2 mm 3 m/s 758 mmHg 91%
    20:00 +26°C° 3.2 mm 2 m/s 759 mmHg 92%
    21:00 +26°C° 3.7 mm 2 m/s 759 mmHg 92%
    22:00 +26°C° 3.7 mm 2 m/s 759 mmHg 91%
    23:00 +26°C° 3.7 mm 2 m/s 759 mmHg 91%

    Poimâine, 26 August, Luni

    Timp Temperatura Precipitaţii Vânt Presiune Umiditate
    00:00 +26°C° 1.7 mm 3 m/s 759 mmHg 92%
    01:00 +26°C° 1.7 mm 3 m/s 758 mmHg 92%
    02:00 +26°C° 1.7 mm 3 m/s 758 mmHg 92%
    03:00 +26°C° 0.1 mm 3 m/s 758 mmHg 92%
    04:00 +25°C° 0.1 mm 3 m/s 758 mmHg 92%
    05:00 +25°C° 0.1 mm 2 m/s 758 mmHg 93%
    06:00 +26°C° 0 mm 3 m/s 758 mmHg 90%
    07:00 +27°C° 0 mm 3 m/s 758 mmHg 88%
    08:00 +28°C° 0 mm 3 m/s 759 mmHg 85%
    09:00 +29°C° 0.4 mm 3 m/s 759 mmHg 80%
    10:00 +30°C° 0.4 mm 3 m/s 759 mmHg 76%
    11:00 +31°C° 0.4 mm 3 m/s 759 mmHg 71%
    12:00 +31°C° 0.5 mm 3 m/s 758 mmHg 68%
    13:00 +33°C° 0.5 mm 3 m/s 758 mmHg 65%
    14:00 +33°C° 0.5 mm 3 m/s 758 mmHg 62%
    15:00 +33°C° 0.4 mm 3 m/s 757 mmHg 65%
    16:00 +31°C° 0.4 mm 3 m/s 757 mmHg 69%
    17:00 +30°C° 0.4 mm 3 m/s 757 mmHg 72%
    18:00 +29°C° 0.1 mm 2 m/s 757 mmHg 77%
    19:00 +28°C° 0.1 mm 2 m/s 758 mmHg 83%
    20:00 +26°C° 0.1 mm 1 m/s 759 mmHg 88%
    21:00 +26°C° 0.3 mm 1 m/s 759 mmHg 89%
    22:00 +26°C° 0.3 mm 1 m/s 759 mmHg 90%
    23:00 +26°C° 0.3 mm 2 m/s 759 mmHg 91%

    27 August, Marţi

    Timp Temperatura Precipitaţii Vânt Presiune Umiditate
    00:00 +26°C° 0.2 mm 2 m/s 759 mmHg 91%
    01:00 +26°C° 0.2 mm 2 m/s 758 mmHg 92%
    02:00 +25°C° 0.2 mm 2 m/s 758 mmHg 92%
    03:00 +25°C° 0 mm 2 m/s 758 mmHg 92%
    04:00 +25°C° 0 mm 2 m/s 758 mmHg 93%
    05:00 +25°C° 0 mm 2 m/s 758 mmHg 93%
    06:00 +26°C° 0 mm 2 m/s 758 mmHg 89%
    07:00 +27°C° 0 mm 2 m/s 759 mmHg 85%
    08:00 +28°C° 0 mm 3 m/s 759 mmHg 82%
    09:00 +28°C° 0 mm 3 m/s 759 mmHg 80%
    10:00 +29°C° 0 mm 3 m/s 759 mmHg 79%
    11:00 +29°C° 0 mm 3 m/s 759 mmHg 77%
    12:00 +29°C° 0.1 mm 3 m/s 759 mmHg 74%
    13:00 +30°C° 0.1 mm 3 m/s 758 mmHg 71%
    14:00 +32°C° 0.1 mm 4 m/s 758 mmHg 68%
    15:00 +30°C° 0.4 mm 4 m/s 758 mmHg 71%
    16:00 +30°C° 0.4 mm 4 m/s 757 mmHg 74%
    17:00 +29°C° 0.4 mm 4 m/s 757 mmHg 77%
    18:00 +28°C° 0.2 mm 3 m/s 758 mmHg 80%
    19:00 +27°C° 0.2 mm 3 m/s 759 mmHg 84%
    20:00 +27°C° 0.2 mm 3 m/s 759 mmHg 87%
    21:00 +26°C° 0.5 mm 3 m/s 759 mmHg 88%
    22:00 +26°C° 0.5 mm 3 m/s 759 mmHg 89%
    23:00 +26°C° 0.5 mm 3 m/s 759 mmHg 90%

    28 August, Miercuri

    Timp Temperatura Precipitaţii Vânt Presiune Umiditate
    00:00 +26°C° 1 mm 3 m/s 759 mmHg 90%
    01:00 +26°C° 1 mm 4 m/s 759 mmHg 90%
    02:00 +26°C° 1 mm 4 m/s 758 mmHg 91%
    03:00 +26°C° 1.2 mm 3 m/s 758 mmHg 91%
    04:00 +26°C° 1.2 mm 3 m/s 758 mmHg 91%
    05:00 +26°C° 1.2 mm 3 m/s 758 mmHg 91%
    06:00 +26°C° 1.3 mm 3 m/s 759 mmHg 90%
    07:00 +27°C° 1.3 mm 3 m/s 759 mmHg 89%
    08:00 +27°C° 1.3 mm 3 m/s 759 mmHg 89%
    09:00 +28°C° 1.6 mm 3 m/s 759 mmHg 86%
    10:00 +28°C° 1.6 mm 3 m/s 759 mmHg 84%
    11:00 +29°C° 1.6 mm 3 m/s 759 mmHg 82%
    12:00 +30°C° 1.3 mm 3 m/s 758 mmHg 79%
    13:00 +30°C° 1.3 mm 3 m/s 758 mmHg 76%
    14:00 +30°C° 1.3 mm 3 m/s 757 mmHg 73%
    15:00 +30°C° 0.6 mm 3 m/s 757 mmHg 76%
    16:00 +29°C° 0.6 mm 3 m/s 757 mmHg 78%
    17:00 +29°C° 0.6 mm 3 m/s 757 mmHg 80%
    18:00 +28°C° 0.2 mm 3 m/s 758 mmHg 83%
    19:00 +27°C° 0.2 mm 2 m/s 758 mmHg 87%
    20:00 +26°C° 0.2 mm 2 m/s 759 mmHg 90%
    21:00 +26°C° 0 mm 2 m/s 759 mmHg 91%
    22:00 +26°C° 0 mm 2 m/s 759 mmHg 92%
    23:00 +26°C° 0 mm 2 m/s 760 mmHg 93%

    29 August, Joi

    Timp Temperatura Precipitaţii Vânt Presiune Umiditate
    00:00 +26°C° 0.3 mm 2 m/s 759 mmHg 93%
    01:00 +26°C° 0.3 mm 2 m/s 759 mmHg 94%
    02:00 +26°C° 0.3 mm 2 m/s 758 mmHg 94%
    03:00 +26°C° 0.2 mm 1 m/s 758 mmHg 94%
    04:00 +26°C° 0.2 mm 1 m/s 758 mmHg 94%
    05:00 +26°C° 0.2 mm 1 m/s 758 mmHg 94%
    06:00 +26°C° 0.2 mm 1 m/s 759 mmHg 90%
    07:00 +27°C° 0.2 mm 2 m/s 759 mmHg 87%
    08:00 +28°C° 0.2 mm 2 m/s 759 mmHg 83%
    09:00 +29°C° 0.7 mm 2 m/s 759 mmHg 79%
    10:00 +30°C° 0.7 mm 2 m/s 759 mmHg 75%
    11:00 +31°C° 0.7 mm 3 m/s 759 mmHg 70%
    12:00 +30°C° 1.7 mm 3 m/s 759 mmHg 73%
    13:00 +30°C° 1.7 mm 3 m/s 758 mmHg 76%
    14:00 +30°C° 1.7 mm 4 m/s 757 mmHg 78%
    15:00 +29°C° 0.6 mm 3 m/s 757 mmHg 81%
    16:00 +28°C° 0.6 mm 3 m/s 757 mmHg 85%
    17:00 +27°C° 0.6 mm 3 m/s 757 mmHg 88%
    18:00 +27°C° 0 mm 3 m/s 758 mmHg 89%
    19:00 +27°C° 0 mm 2 m/s 758 mmHg 89%
    20:00 +26°C° 0 mm 2 m/s 759 mmHg 90%
    21:00 +26°C° 0.1 mm 2 m/s 759 mmHg 90%
    22:00 +26°C° 0.1 mm 2 m/s 759 mmHg 90%
    23:00 +27°C° 0.1 mm 2 m/s 759 mmHg 90%
    Arată mai mult